Weather History for Niagara Falls, NY

Change the Weather History Date:

Monday, November 5, 2012

  Actual Average Record
Temperature  
Mean Temperature 34 °F -  
Max Temperature 35 °F 49 °F 68 °F (2003)
Min Temperature 33 °F 34 °F 26 °F (1991)
Degree Days  
Heating Degree Days 31    
Moisture  
Dew Point 23 °F    
Average Humidity 65    
Maximum Humidity 73    
Minimum Humidity 54    
Precipitation  
Precipitation 0.00 in - - ()
Sea Level Pressure  
Sea Level Pressure 30.18 in    
Wind  
Wind Speed 6 mph (North)    
Max Wind Speed 12 mph    
Max Gust Speed -    
Visibility 10 miles    
Events Snow    
Averages and records for this station are not official NWS values.
T = Trace of Precipitation, MM = Missing Value Source: NWS Daily Summary

Daily Weather History Graph

Daily Weather History Graph

Search for Another Location

Airport:

Trip Planner

Search our weather history database for the weather conditions in past years. The results will help you decide how hot, cold, wet, or windy it might be!

Date:

Astronomy

Nov. 05, 2012 Rise Set
Actual Time 6:56 AM EST 5:01 PM EST
Civil Twilight 6:26 AM EST 5:31 PM EST
Nautical Twilight 5:52 AM EST 6:05 PM EST
Astronomical Twilight 5:19 AM EST 6:38 PM EST
Moon 10:37 PM EST (11/5) 12:14 PM EST (11/5)
Length of Visible Light 11h 05m
Length of Day
10h 05m
Waning Gibbous, 63% of the Moon is Illuminated
Nov 5
Waning Gibbous
Nov 6
Last Quarter
Nov 13
New
Nov 20
First Quarter
Nov 28
Full

Hourly Weather History & Observations

Time (EST) Temp. Windchill Dew Point Humidity Pressure Visibility Wind Dir Wind Speed Gust Speed Precip Events Conditions
12:53 AM 35.1 °F 31.0 °F 25.0 °F 67% 30.14 in 10.0 mi NNW 4.6 mph - N/A   Overcast
1:08 AM 35.6 °F 30.7 °F 26.6 °F 70% 30.10 in 10.0 mi North 5.8 mph - N/A   Overcast
1:53 AM 34.0 °F 27.2 °F 25.0 °F 70% 30.14 in 10.0 mi North 8.1 mph - N/A   Overcast
2:19 AM 33.8 °F 27.7 °F 24.8 °F 70% 30.10 in 10.0 mi North 6.9 mph - N/A   Overcast
2:53 AM 34.0 °F 28.8 °F 24.1 °F 67% 30.14 in 10.0 mi NNW 5.8 mph - N/A   Overcast
3:53 AM 34.0 °F 28.8 °F 25.0 °F 70% 30.14 in 10.0 mi NNW 5.8 mph - N/A   Overcast
4:48 AM 33.8 °F 28.6 °F 24.8 °F 70% 30.11 in 10.0 mi NNW 5.8 mph - N/A   Overcast
4:53 AM 34.0 °F 28.0 °F 26.1 °F 73% 30.15 in 10.0 mi North 6.9 mph - N/A   Overcast
5:33 AM 33.8 °F 27.0 °F 24.8 °F 70% 30.12 in 10.0 mi North 8.1 mph - N/A   Overcast
5:53 AM 34.0 °F 26.6 °F 23.0 °F 64% 30.17 in 10.0 mi NNW 9.2 mph - N/A   Overcast
6:53 AM 34.0 °F 27.2 °F 23.0 °F 64% 30.18 in 10.0 mi NNW 8.1 mph - N/A   Overcast
6:59 AM 33.8 °F 27.0 °F 23.0 °F 65% 30.14 in 10.0 mi NNW 8.1 mph - N/A   Overcast
7:49 AM 33.8 °F 27.7 °F 23.0 °F 65% 30.15 in 10.0 mi NNW 6.9 mph - 0.00 in Snow Light Snow
7:53 AM 34.0 °F 27.2 °F 23.0 °F 64% 30.19 in 10.0 mi NNW 8.1 mph - 0.00 in Snow Light Snow
8:22 AM 33.8 °F 29.6 °F 24.8 °F 70% 30.16 in 9.0 mi North 4.6 mph - 0.00 in   Overcast
8:50 AM 33.8 °F 29.6 °F 23.0 °F 65% 30.16 in 10.0 mi North 4.6 mph - 0.00 in Snow Light Snow
8:53 AM 34.0 °F 28.8 °F 24.1 °F 67% 30.20 in 10.0 mi NNE 5.8 mph - 0.00 in Snow Light Snow
9:53 AM 34.0 °F 28.0 °F 25.0 °F 70% 30.22 in 9.0 mi North 6.9 mph - 0.00 in Snow Light Snow
10:53 AM 34.0 °F 28.0 °F 26.1 °F 73% 30.22 in 8.0 mi North 6.9 mph - 0.00 in Snow Light Snow
11:29 AM 35.6 °F 29.2 °F 26.6 °F 70% 30.17 in 9.0 mi NNE 8.1 mph - 0.00 in   Overcast
11:53 AM 35.1 °F 29.3 °F 25.0 °F 67% 30.21 in 10.0 mi North 6.9 mph - 0.00 in   Overcast
12:34 PM 35.6 °F 28.6 °F 24.8 °F 65% 30.16 in 10.0 mi North 9.2 mph - N/A   Overcast
12:36 PM 35.6 °F 28.0 °F 24.8 °F 65% 30.16 in 10.0 mi North 10.4 mph - N/A   Overcast
12:53 PM 35.1 °F 26.9 °F 24.1 °F 64% 30.21 in 10.0 mi North 11.5 mph - N/A   Overcast
1:53 PM 35.1 °F 28.6 °F 24.1 °F 64% 30.21 in 10.0 mi NNW 8.1 mph - N/A   Mostly Cloudy
2:53 PM 35.1 °F 29.3 °F 21.9 °F 59% 30.21 in 10.0 mi North 6.9 mph - N/A   Mostly Cloudy
3:53 PM 35.1 °F 30.1 °F 21.9 °F 59% 30.21 in 10.0 mi North 5.8 mph - N/A   Mostly Cloudy
4:53 PM 34.0 °F 29.8 °F 21.9 °F 61% 30.21 in 10.0 mi NNW 4.6 mph - N/A   Mostly Cloudy
5:53 PM 34.0 °F 28.8 °F 19.9 °F 56% 30.22 in 10.0 mi NW 5.8 mph - N/A   Mostly Cloudy
6:53 PM 34.0 °F 28.8 °F 19.9 °F 56% 30.24 in 10.0 mi North 5.8 mph - N/A   Mostly Cloudy
7:53 PM 34.0 °F - 21.0 °F 59% 30.24 in 10.0 mi Calm Calm - N/A   Overcast
8:53 PM 33.1 °F - 19.9 °F 59% 30.25 in 10.0 mi Calm Calm - N/A   Overcast
9:53 PM 34.0 °F - 21.0 °F 59% 30.24 in 10.0 mi Calm Calm - N/A   Overcast
10:53 PM 34.0 °F - 19.0 °F 54% 30.23 in 10.0 mi Calm Calm - N/A   Overcast
11:53 PM 34.0 °F - 19.0 °F 54% 30.23 in 10.0 mi Calm Calm - N/A   Overcast